sat.trackr.live / text

‹ back to catalog

STARLINK-2550

NORAD 48293 · 2021-036T

PAYLOAD ACTIVE UNKNOWN

§ Identity

Operator
Country
US
Launch date
2021-04-29
Launch site
AFETR
Launch vehicle
Mass (kg)
RCS (m²)

Purposes: comms

External: N2YO · Heavens-Above · Gunter

§ Orbital elements

Epoch: 2026-05-25T02:26:31.896384Z

Period
94.01 min
Inclination
53.1601°
Eccentricity
0.0001185
Mean motion
15.31702585 rev/d
Perigee alt
469.9 km
Apogee alt
471.5 km
Semi-major
6,848.9 km
B*
1.9206e-5
RAAN
80.0140°
Arg perigee
85.6647°
Mean anomaly
274.4489°
Rev number
28,011

§ Raw data

STARLINK-25501 48293U 21036T   26145.10175806  .00000231  00000+0  19206-4 0  99912 48293  53.1601  80.0140 0001185  85.6647 274.4489 15.31702585280115

JSON: /api/v1/satellites/48293 · /tle

For live sub-satellite position, see the globe view (requires WebGL).

§ Visibility from observer

Set your observer location to see the next 7 days of passes ≥ 10°. The values pass through the URL so the page stays shareable.

No JS? Fill the form by hand. The geolocation button needs JavaScript.